Time,TemperatureF,DewpointF,PressureIn,WindDirection,WindDirectionDegrees,WindSpeedMPH,WindSpeedGustMPH,Humidity,HourlyPrecipIn,Conditions,Clouds,dailyrainin,SoftwareType,DateUTC
2013-03-11 00:22:00,50.0,-99.9,-100.00,West,265,6.0,8.0,-999,-99.99,,,-99.99,,2013-03-11 07:22:00,
2013-03-11 01:02:00,49.0,-99.9,-100.00,WNW,293,7.0,10.0,-999,-99.99,,,-99.99,,2013-03-11 08:02:00,
2013-03-11 01:12:00,49.0,-99.9,-100.00,WNW,293,7.0,10.0,-999,-99.99,,,-99.99,,2013-03-11 08:12:00,
2013-03-11 01:23:00,49.0,-99.9,-100.00,WNW,293,7.0,10.0,-999,-99.99,,,-99.99,,2013-03-11 08:23:00,
2013-03-11 03:02:00,46.0,-99.9,-100.00,WSW,252,6.0,10.0,-999,-99.99,,,-99.99,,2013-03-11 10:02:00,
2013-03-11 03:12:00,46.0,-99.9,-100.00,WSW,252,6.0,10.0,-999,-99.99,,,-99.99,,2013-03-11 10:12:00,
2013-03-11 03:22:00,46.0,-99.9,-100.00,WSW,252,6.0,10.0,-999,-99.99,,,-99.99,,2013-03-11 10:22:00,
2013-03-11 03:53:00,46.0,-99.9,-100.00,West,263,6.0,8.0,-999,-99.99,,,-99.99,,2013-03-11 10:53:00,
2013-03-11 07:20:00,40.0,-99.9,-100.00,WSW,249,4.0,7.0,-999,-99.99,,,-99.99,,2013-03-11 14:20:00,
2013-03-11 08:13:00,40.0,-99.9,-100.00,WSW,249,4.0,7.0,-999,-99.99,,,-99.99,,2013-03-11 15:13:00,
2013-03-11 09:32:00,57.0,-99.9,-100.00,WSW,257,6.0,6.0,-999,-99.99,,,-99.99,,2013-03-11 16:32:00,
2013-03-11 12:00:00,65.0,-99.9,-100.00,ESE,106,2.0,8.0,-999,-99.99,,,-99.99,,2013-03-11 19:00:00,
2013-03-11 12:33:00,65.0,-99.9,-100.00,ESE,106,2.0,8.0,-999,-99.99,,,-99.99,,2013-03-11 19:33:00,
2013-03-11 12:43:00,65.0,-99.9,-100.00,ESE,106,2.0,8.0,-999,-99.99,,,-99.99,,2013-03-11 19:43:00,
2013-03-11 12:53:00,65.0,-99.9,-100.00,ESE,106,2.0,8.0,-999,-99.99,,,-99.99,,2013-03-11 19:53:00,
2013-03-11 15:00:00,73.0,-99.9,-100.00,South,174,4.0,8.0,-999,-99.99,,,-99.99,,2013-03-11 22:00:00,
2013-03-11 15:33:00,73.0,-99.9,-100.00,South,174,4.0,8.0,-999,-99.99,,,-99.99,,2013-03-11 22:33:00,
2013-03-11 15:40:00,73.0,-99.9,-100.00,South,171,3.0,6.0,-999,-99.99,,,-99.99,,2013-03-11 22:40:00,
2013-03-11 16:20:00,74.0,-99.9,-100.00,SSW,212,3.0,6.0,-999,-99.99,,,-99.99,,2013-03-11 23:20:00,
2013-03-11 16:22:00,73.0,-99.9,-100.00,South,171,3.0,6.0,-999,-99.99,,,-99.99,,2013-03-11 23:22:00,
2013-03-11 16:33:00,73.0,-99.9,-100.00,South,171,3.0,6.0,-999,-99.99,,,-99.99,,2013-03-11 23:33:00,
2013-03-11 17:02:00,74.0,-99.9,-100.00,SSW,212,3.0,6.0,-999,-99.99,,,-99.99,,2013-03-12 00:02:00,
2013-03-11 17:13:00,74.0,-99.9,-100.00,SSW,212,3.0,6.0,-999,-99.99,,,-99.99,,2013-03-12 00:13:00,
2013-03-11 18:22:00,73.0,-99.9,-100.00,SE,138,3.0,6.0,-999,-99.99,,,-99.99,,2013-03-12 01:22:00,
2013-03-11 18:33:00,73.0,-99.9,-100.00,SE,138,3.0,6.0,-999,-99.99,,,-99.99,,2013-03-12 01:33:00,
2013-03-11 19:22:00,69.0,-99.9,-100.00,ESE,114,1.0,3.0,-999,-99.99,,,-99.99,,2013-03-12 02:22:00,
2013-03-11 19:32:00,69.0,-99.9,-100.00,ESE,114,1.0,3.0,-999,-99.99,,,-99.99,,2013-03-12 02:32:00,
2013-03-11 20:00:00,60.0,-99.9,-100.00,West,268,6.0,7.0,-999,-99.99,,,-99.99,,2013-03-12 03:00:00,
2013-03-11 20:02:00,62.0,-99.9,-100.00,WSW,250,11.0,13.0,-999,-99.99,,,-99.99,,2013-03-12 03:02:00,
2013-03-11 20:12:00,62.0,-99.9,-100.00,WSW,250,11.0,13.0,-999,-99.99,,,-99.99,,2013-03-12 03:12:00,
2013-03-11 20:22:00,62.0,-99.9,-100.00,WSW,250,11.0,13.0,-999,-99.99,,,-99.99,,2013-03-12 03:22:00,
2013-03-11 20:53:00,60.0,-99.9,-100.00,West,268,6.0,7.0,-999,-99.99,,,-99.99,,2013-03-12 03:53:00,
2013-03-11 21:10:00,58.0,-99.9,-100.00,West,263,6.0,9.0,-999,-99.99,,,-99.99,,2013-03-12 04:10:00,
2013-03-11 21:53:00,58.0,-99.9,-100.00,West,263,6.0,9.0,-999,-99.99,,,-99.99,,2013-03-12 04:53:00,
2013-03-11 22:03:00,58.0,-99.9,-100.00,West,263,6.0,9.0,-999,-99.99,,,-99.99,,2013-03-12 05:03:00,